Weather History for KEUF - November, 2012

Change the Weather History Date:

Wednesday, November 28, 2012

  Actual Average (KLSF) Record (KLSF)
Temperature  
Mean Temperature 55 °F -  
Max Temperature 68 °F 64 °F 78 °F (2001)
Min Temperature 41 °F 37 °F 20 °F (2013)
Degree Days  
Heating Degree Days 10    
Growing Degree Days 5 (Base 50)    
Moisture  
Dew Point 42 °F    
Average Humidity 68    
Maximum Humidity 84    
Minimum Humidity 37    
Precipitation  
Precipitation 0.00 in - - ()
Sea Level Pressure  
Sea Level Pressure 30.31 in    
Wind  
Wind Speed 3 mph (North)    
Max Wind Speed 7 mph    
Max Gust Speed -    
Visibility 8 miles    
Events Rain    
Averages and records for this station are not official NWS values.
T = Trace of Precipitation, MM = Missing Value Source: NWS Daily Summary

Daily Weather History Graph

Daily Weather History Graph

Search for Another Location

Airport or City:

Trip Planner

Search our weather history database for the weather conditions in past years. The results will help you decide how hot, cold, wet, or windy it might be!

Date:

Astronomy

Nov. 28, 2012 Rise Set
Actual Time 6:20 AM CST 4:36 PM CST
Civil Twilight 5:54 AM CST 5:02 PM CST
Nautical Twilight 5:24 AM CST 5:32 PM CST
Astronomical Twilight 4:54 AM CST 6:02 PM CST
Moon 4:50 PM CST (11/28) 6:17 AM CST (11/28)
Length of Visible Light 11h 08m
Length of Day
10h 15m
Full, 100% of the Moon is Illuminated
Nov 28
Full
Dec 6
Last Quarter
Dec 13
New
Dec 19
First Quarter
Dec 28
Full

Hourly Weather History & Observations

Time (CST) Temp. Dew Point Humidity Pressure Visibility Wind Dir Wind Speed Gust Speed Precip Events Conditions
12:54 AM 57.2 °F 51.8 °F 82% 30.22 in 6.0 mi Variable 3.5 mph - N/A   Haze
12:58 AM 57.0 °F 51.1 °F 81% 30.22 in 6.0 mi NW 3.5 mph - N/A   Haze
1:58 AM 55.9 °F 51.1 °F 84% 30.24 in 8.0 mi Variable 3.5 mph - N/A   Overcast
2:58 AM 54.0 °F 48.9 °F 83% 30.25 in 8.0 mi Variable 4.6 mph - N/A   Overcast
3:18 AM 53.6 °F 48.2 °F 82% 30.26 in 9.0 mi Variable 3.5 mph - N/A   Overcast
3:58 AM 54.0 °F 48.9 °F 83% 30.26 in 7.0 mi Calm Calm - N/A   Overcast
4:07 AM 53.6 °F 48.2 °F 82% 30.26 in 8.0 mi Calm Calm - N/A   Overcast
4:58 AM 53.1 °F 45.0 °F 74% 30.29 in 10.0 mi NNW 4.6 mph - N/A   Overcast
5:58 AM 51.1 °F 43.0 °F 74% 30.30 in 10.0 mi NNW 3.5 mph - N/A   Overcast
6:58 AM 50.0 °F 41.0 °F 71% 30.33 in 10.0 mi NNW 5.8 mph - N/A   Overcast
7:39 AM 50.0 °F 41.0 °F 71% 30.34 in 10.0 mi Variable 4.6 mph - N/A   Overcast
7:58 AM 50.0 °F 41.0 °F 71% 30.35 in 10.0 mi NNW 4.6 mph - N/A   Overcast
8:58 AM 53.1 °F 41.0 °F 64% 30.36 in 10.0 mi NNW 4.6 mph - N/A   Overcast
9:15 AM 53.6 °F 39.2 °F 58% 30.37 in 10.0 mi NNE 4.6 mph - N/A   Scattered Clouds
9:58 AM 59.0 °F 39.9 °F 49% 30.37 in 10.0 mi Calm Calm - N/A   Partly Cloudy
10:58 AM 61.0 °F 39.0 °F 44% 30.36 in 10.0 mi Variable 3.5 mph - N/A   Clear
11:58 AM 62.1 °F 39.0 °F 43% 30.33 in 10.0 mi Variable 6.9 mph - N/A   Clear
12:58 PM 66.0 °F 39.9 °F 38% 30.30 in 10.0 mi Variable 3.5 mph - N/A   Clear
1:58 PM 68.0 °F 41.0 °F 37% 30.29 in 10.0 mi East 5.8 mph - N/A   Clear
2:58 PM 66.9 °F 41.0 °F 39% 30.29 in 10.0 mi ENE 6.9 mph - N/A   Clear
3:58 PM 64.0 °F 41.0 °F 43% 30.30 in 10.0 mi Calm Calm - N/A   Clear
4:58 PM 53.1 °F 43.0 °F 69% 30.31 in 10.0 mi Calm Calm - N/A   Clear
5:58 PM 51.1 °F 43.0 °F 74% 30.33 in 10.0 mi East 5.8 mph - N/A   Clear
6:58 PM 50.0 °F 41.0 °F 71% 30.35 in 9.0 mi Calm Calm - N/A   Clear
7:58 PM 46.0 °F 39.0 °F 76% 30.35 in 4.0 mi Calm Calm - N/A   Haze
8:58 PM 46.9 °F 37.9 °F 71% 30.37 in 7.0 mi Calm Calm - N/A   Clear
9:58 PM 43.0 °F 37.9 °F 82% 30.36 in 4.0 mi Calm Calm - 0.00 in   Haze
10:58 PM 44.1 °F 37.0 °F 76% 30.36 in 4.0 mi Calm Calm - 0.00 in Rain Light Rain
11:35 PM 42.8 °F 35.6 °F 76% 30.36 in 2.5 mi Calm Calm - 0.00 in   Haze
11:58 PM 41.0 °F 36.0 °F 82% 30.36 in 2.5 mi Calm Calm - 0.00 in   Haze